Wind_Speed
21 21 21 22 22 22 21 20 21 22 23 23 23 23 23 23 23 23 24 24 24 25 25 25 26 25 25 25 25 25 25 25 25 25 25 25 24 24 25 26 26 27 27
21 21 20 21 21 20 19 20 21 21 22 22 22 22 23 23 24 24 24 24 24 24 24 25 24 25 25 24 24 24 24 24 25 25 25 25 25 25 25 26 26 26 26
20 20 20 21 20 19 19 20 21 21 21 21 21 22 23 24 24 24 23 23 23 23 23 23 23 23 24 24 24 24 24 24 24 24 25 25 25 25 24 24 25 25 26
20 20 19 19 19 19 19 20 20 21 21 20 21 21 23 24 24 24 23 22 23 23 23 23 23 23 23 23 23 24 24 24 24 24 25 25 25 25 24 24 24 24 25
19 19 19 19 18 18 19 19 20 20 20 20 21 21 22 23 24 24 23 23 24 24 23 23 23 23 22 23 23 23 23 23 23 23 24 24 24 24 24 24 24 24 25
18 18 18 18 17 18 18 18 19 19 20 20 21 21 22 23 23 23 23 24 23 24 23 23 23 23 23 23 23 23 24 24 24 24 24 24 24 24 24 25 25 24 24
17 17 17 17 16 16 16 17 18 18 19 20 21 21 22 22 22 22 23 24 23 23 23 23 23 23 23 23 23 23 24 24 24 25 25 25 25 25 25 24 24 24 24
15 15 16 15 15 16 15 16 16 18 19 19 21 21 21 22 22 23 23 24 24 23 23 23 23 23 23 23 24 24 24 24 24 25 25 25 25 25 25 24 23 23 24
13 14 14 14 14 14 15 15 16 17 18 19 21 21 21 22 22 22 22 23 24 24 24 24 24 24 24 23 24 24 24 24 24 25 26 26 25 25 24 24 23 23 23
12 13 14 14 14 14 15 16 17 17 18 20 20 21 21 21 21 22 23 24 25 25 25 25 24 24 24 24 23 23 24 24 24 25 25 25 24 23 23 23 23 22 21
12 13 13 14 14 14 15 16 17 18 19 20 20 21 21 21 21 23 24 25 25 26 25 24 24 23 23 22 22 23 23 23 23 24 23 23 22 21 21 20 20 20 20
13 13 14 14 14 15 15 16 17 18 20 20 20 21 21 22 22 23 24 25 25 26 25 25 24 22 22 23 23 23 23 22 22 21 21 20 19 19 19 19 19 20 20
12 13 14 14 15 15 16 17 18 19 20 20 21 21 21 22 22 22 23 24 24 25 25 25 24 23 23 24 23 23 22 22 21 20 19 19 19 19 19 19 19 19 19
12 13 13 14 15 16 17 17 18 19 19 20 20 20 21 21 21 22 23 24 25 25 26 26 25 25 24 24 23 22 22 22 21 20 20 19 19 18 18 17 18 18 18
13 13 13 14 15 15 16 17 18 18 19 19 20 20 21 22 23 23 24 24 24 25 25 25 25 25 25 24 24 24 23 22 20 20 19 18 17 17 17 17 18 19 19
13 13 14 15 16 17 18 18 18 19 19 19 20 20 21 23 24 24 24 24 25 25 25 25 25 26 26 26 25 24 24 22 21 20 19 19 17 17 17 17 18 18 19
12 13 14 15 16 17 18 19 18 18 18 18 19 21 22 22 23 24 24 25 25 25 25 26 26 27 26 26 25 24 24 22 21 20 19 19 18 18 18 18 19 20 20
12 14 14 15 16 17 17 18 18 18 18 19 19 21 22 23 23 23 24 25 25 25 25 26 26 26 26 25 25 24 24 22 21 21 21 20 19 18 18 20 20 20 20
12 13 14 15 16 16 17 17 18 18 19 19 20 21 22 24 24 24 25 26 26 26 26 26 26 26 25 25 25 24 24 23 22 20 21 20 19 19 19 19 20 20 20
12 13 14 15 15 16 17 17 18 18 19 20 20 22 23 24 24 25 26 27 27 27 27 27 27 26 26 25 25 24 24 23 22 21 20 20 20 19 19 19 20 20 20
12 12 13 14 15 16 17 17 18 19 20 21 22 23 24 24 25 26 27 27 27 27 28 27 27 27 26 26 25 24 23 23 21 21 21 21 21 20 20 20 20 20 20
12 12 13 14 15 16 16 17 18 19 20 21 22 23 24 25 25 26 27 27 27 28 27 27 27 28 26 26 25 24 23 23 22 22 22 22 21 21 21 20 20 20 20
12 12 13 14 15 16 17 18 19 20 20 21 23 24 25 25 26 26 27 28 28 28 28 28 28 28 27 26 26 25 23 22 22 22 22 22 22 21 21 20 19 19 19
11 12 13 14 15 16 17 18 19 20 21 23 24 25 26 26 27 27 27 28 28 28 28 28 27 27 26 26 26 25 24 23 22 22 22 22 22 21 21 19 18 18 18
12 12 13 14 15 17 18 19 20 21 22 23 24 25 26 27 27 27 27 28 28 28 27 27 27 27 26 25 26 25 24 23 23 23 22 22 22 22 21 20 19 19 18
12 13 14 15 16 17 18 19 21 22 23 24 25 25 26 27 27 27 27 28 28 27 27 27 27 27 27 26 26 26 25 23 23 23 23 23 22 22 21 20 20 20 19
Wind_Direction
296 297 300 303 305 306 308 309 310 310 310 308 308 309 310 311 309 310 309 306 305 304 303 302 300 298 297 295 294 292 290 290 290 288 288 287 283 280 279 277 276 277 278
298 300 302 304 305 306 307 309 310 311 311 312 312 312 312 312 312 311 312 309 307 307 306 305 304 302 301 298 297 294 292 292 291 290 289 289 286 283 283 280 277 278 277
299 301 303 305 305 305 308 311 310 310 313 314 314 314 315 315 315 315 315 312 312 311 310 309 307 306 304 300 298 297 294 292 291 290 288 288 288 287 285 281 280 279 277
298 301 302 304 305 306 308 311 311 311 313 316 316 316 317 317 316 316 315 314 314 314 313 312 310 307 305 301 298 298 295 294 292 291 288 288 288 287 284 282 279 278 278
298 300 302 303 304 306 308 309 311 313 315 318 319 318 318 318 317 316 317 315 314 314 314 313 312 309 305 302 301 299 297 296 295 293 291 290 290 288 285 283 280 278 278
298 299 302 305 306 308 310 312 314 315 317 320 320 319 318 318 318 319 320 319 318 317 316 315 313 309 306 305 303 301 300 298 296 295 293 291 289 287 288 286 282 279 279
298 301 304 306 307 309 310 313 315 317 318 320 322 321 322 322 322 322 322 321 321 320 318 317 316 316 312 309 307 305 303 301 298 297 295 291 288 285 287 286 284 281 281
301 305 306 307 308 308 312 315 316 318 319 321 323 324 323 324 323 323 323 323 322 321 320 319 317 316 314 311 308 306 305 303 300 299 297 294 290 288 286 285 285 284 280
306 310 311 312 312 313 316 318 320 320 321 323 325 326 326 326 325 326 326 325 325 324 321 319 319 318 315 313 310 307 305 303 302 301 298 295 292 288 284 284 284 284 282
312 316 315 315 317 320 320 321 322 323 324 325 327 328 327 327 327 327 326 326 326 326 323 322 322 319 316 315 313 309 306 304 303 301 299 295 291 287 286 284 283 283 280
315 315 319 320 322 323 324 324 325 325 326 327 328 329 329 329 328 326 325 326 327 328 327 326 325 323 320 318 315 313 311 308 306 304 300 296 293 289 287 285 283 283 279
315 315 317 320 322 323 325 326 327 327 327 327 328 329 329 330 329 328 328 328 329 329 328 328 327 326 324 322 318 316 315 314 312 308 303 300 297 292 288 286 284 283 282
315 316 317 318 320 322 325 326 327 327 328 327 328 329 330 330 329 330 330 331 331 332 332 331 329 328 326 324 322 320 318 317 314 312 308 303 299 296 291 287 286 286 284
317 319 320 321 321 323 326 327 328 330 331 330 329 331 332 333 333 332 332 332 332 333 333 333 332 331 331 328 326 325 323 322 319 315 311 306 302 298 294 290 286 283 283
320 322 324 324 325 327 330 330 330 332 333 333 332 334 335 336 336 334 332 332 333 334 335 336 335 334 332 332 331 329 327 324 320 318 315 310 305 300 297 293 290 286 284
322 324 325 328 330 331 331 331 331 332 334 335 335 335 335 335 335 335 334 334 335 336 336 336 335 334 334 334 333 331 329 327 323 320 319 313 306 300 298 297 296 294 292
324 326 328 329 330 331 332 333 334 335 336 336 337 338 338 339 338 337 336 335 336 336 337 337 337 336 335 334 334 333 331 329 327 325 322 317 310 303 300 300 299 297 297
325 328 329 329 330 332 334 336 337 337 337 338 338 340 339 339 339 338 337 337 337 337 337 337 338 338 338 337 336 335 333 331 328 327 325 323 318 310 305 303 301 298 297
328 329 330 331 333 336 338 340 340 340 340 339 340 341 342 341 340 338 338 338 339 339 339 339 339 339 338 338 335 335 334 333 331 327 326 323 320 315 310 307 306 303 300
329 332 333 334 336 339 341 342 342 342 342 341 340 340 341 341 341 340 339 341 341 340 340 339 340 340 339 337 334 334 333 332 332 329 327 326 323 318 314 311 309 307 304
331 333 334 335 338 339 341 342 342 342 342 342 341 341 341 340 340 341 341 340 341 341 340 340 340 340 338 337 336 334 332 331 332 332 330 328 326 322 317 313 310 309 306
331 333 335 337 338 339 340 342 342 343 343 342 343 342 341 340 340 341 341 340 340 341 342 341 340 339 337 337 337 335 334 333 331 331 330 329 326 324 320 316 313 311 309
329 332 334 337 339 339 341 341 342 343 343 342 342 342 342 341 341 340 341 341 340 341 342 342 341 340 339 338 339 337 335 333 331 331 332 331 330 327 324 321 317 315 314
328 332 334 335 337 338 340 342 343 342 342 341 341 341 341 341 341 341 342 342 341 341 342 343 343 343 341 340 340 339 338 336 334 333 334 335 335 333 331 328 325 321 318
327 331 333 334 335 338 339 341 341 341 341 341 342 342 342 342 341 342 343 344 343 343 344 344 344 344 344 343 343 342 339 339 338 336 335 336 337 336 334 332 330 327 323
328 331 332 333 335 336 337 339 340 341 341 342 343 343 343 343 342 343 344 345 345 345 346 345 345 346 346 344 344 344 343 341 340 338 338 337 337 336 334 333 332 330 328
Height
5778 5776 5775 5773 5770 5768 5766 5763 5761 5759 5756 5754 5752 5749 5746 5743 5740 5738 5735 5733 5730 5727 5724 5721 5718 5715 5713 5711 5709 5707 5705 5703 5702 5701 5699 5698 5696 5695 5695 5694 5693 5693 5692
5773 5772 5770 5768 5766 5764 5762 5759 5757 5754 5752 5750 5747 5744 5741 5738 5736 5733 5730 5727 5724 5721 5718 5715 5712 5709 5707 5704 5702 5700 5699 5697 5695 5694 5692 5691 5690 5688 5687 5686 5686 5685 5684
5769 5767 5765 5764 5762 5760 5758 5755 5753 5751 5748 5746 5743 5740 5737 5734 5731 5728 5725 5722 5719 5716 5713 5709 5707 5704 5701 5699 5696 5694 5692 5690 5688 5687 5686 5684 5683 5681 5680 5679 5678 5677 5676
5765 5763 5761 5760 5758 5756 5754 5752 5749 5747 5745 5742 5739 5736 5733 5730 5727 5723 5720 5716 5714 5711 5708 5704 5701 5699 5696 5693 5691 5688 5686 5684 5682 5680 5679 5677 5676 5674 5673 5672 5671 5670 5669
5760 5759 5757 5756 5754 5752 5750 5748 5746 5743 5741 5738 5735 5732 5729 5726 5722 5719 5715 5713 5709 5706 5703 5699 5696 5693 5690 5688 5685 5682 5680 5677 5675 5674 5672 5670 5669 5667 5666 5664 5663 5662 5662
5756 5755 5753 5752 5750 5748 5746 5744 5742 5740 5737 5734 5731 5728 5725 5721 5718 5714 5711 5708 5705 5701 5698 5694 5691 5688 5685 5682 5679 5677 5674 5671 5669 5667 5665 5664 5662 5660 5658 5657 5656 5655 5655
5752 5751 5749 5748 5746 5744 5742 5740 5738 5736 5734 5731 5728 5725 5721 5717 5714 5711 5708 5704 5700 5697 5693 5690 5686 5683 5680 5677 5674 5671 5668 5665 5663 5661 5658 5656 5655 5653 5651 5650 5649 5648 5647
5748 5747 5746 5744 5743 5741 5739 5737 5735 5733 5730 5727 5725 5721 5718 5714 5711 5708 5704 5700 5696 5692 5689 5685 5681 5678 5674 5671 5668 5665 5662 5659 5656 5654 5651 5649 5647 5645 5644 5643 5642 5641 5640
5746 5744 5743 5741 5740 5738 5736 5734 5732 5730 5727 5724 5721 5718 5715 5711 5707 5704 5700 5697 5693 5689 5684 5680 5676 5673 5669 5665 5662 5659 5656 5653 5649 5647 5644 5642 5640 5638 5637 5636 5635 5634 5633
5743 5742 5740 5739 5737 5735 5733 5731 5729 5727 5724 5721 5718 5715 5711 5707 5704 5700 5697 5693 5689 5685 5680 5675 5671 5667 5663 5659 5656 5653 5650 5646 5643 5640 5637 5634 5632 5631 5629 5628 5627 5627 5626
5742 5740 5739 5737 5735 5733 5731 5729 5726 5724 5721 5718 5715 5711 5707 5704 5700 5697 5693 5689 5684 5680 5675 5670 5666 5661 5657 5653 5650 5646 5643 5640 5637 5633 5631 5628 5626 5625 5623 5622 5621 5620 5620
5740 5738 5737 5735 5732 5730 5728 5726 5723 5720 5717 5714 5711 5708 5704 5700 5697 5693 5689 5684 5680 5675 5671 5666 5661 5657 5653 5648 5645 5641 5637 5634 5631 5628 5625 5622 5620 5619 5617 5616 5615 5614 5613
5738 5736 5734 5732 5730 5728 5725 5723 5720 5717 5714 5711 5708 5704 5700 5697 5693 5689 5685 5681 5676 5671 5667 5662 5657 5653 5649 5644 5640 5636 5632 5629 5625 5622 5619 5617 5615 5613 5611 5610 5609 5608 5607
5736 5734 5732 5730 5728 5725 5723 5720 5717 5714 5711 5708 5704 5701 5697 5693 5689 5685 5681 5677 5672 5667 5663 5658 5654 5649 5644 5640 5635 5631 5627 5623 5620 5617 5614 5611 5609 5607 5606 5604 5603 5602 5601
5733 5732 5730 5728 5725 5723 5720 5717 5714 5711 5708 5705 5701 5697 5693 5690 5686 5682 5677 5673 5668 5664 5659 5655 5650 5645 5641 5636 5631 5627 5622 5618 5614 5611 5608 5606 5604 5602 5600 5599 5597 5596 5595
5731 5730 5728 5725 5723 5720 5718 5715 5712 5708 5705 5702 5698 5695 5691 5687 5682 5678 5674 5670 5665 5661 5656 5651 5646 5642 5637 5631 5627 5622 5617 5613 5610 5606 5603 5600 5598 5597 5595 5593 5592 5590 5589
5729 5727 5725 5723 5720 5718 5715 5712 5709 5706 5703 5699 5696 5692 5688 5684 5680 5676 5671 5667 5662 5657 5652 5647 5642 5637 5632 5627 5622 5617 5613 5609 5605 5601 5598 5595 5593 5591 5589 5587 5585 5584 5582
5727 5725 5723 5721 5718 5715 5713 5710 5707 5703 5700 5697 5694 5690 5686 5682 5677 5673 5668 5663 5658 5654 5649 5643 5638 5633 5628 5623 5618 5613 5609 5604 5601 5597 5594 5590 5588 5585 5583 5581 5579 5577 5575
5725 5723 5721 5719 5716 5713 5710 5707 5704 5701 5698 5694 5691 5687 5683 5679 5674 5670 5665 5660 5655 5650 5645 5639 5634 5628 5623 5619 5614 5609 5605 5601 5597 5593 5589 5586 5583 5580 5577 5575 5573 5570 5568
5723 5721 5719 5717 5714 5711 5708 5705 5702 5699 5696 5692 5688 5685 5681 5676 5671 5666 5662 5656 5651 5646 5641 5635 5630 5625 5620 5615 5610 5606 5601 5597 5593 5589 5585 5581 5577 5574 5571 5569 5567 5564 5562
5721 5719 5717 5715 5712 5710 5707 5704 5701 5697 5694 5690 5686 5682 5677 5673 5668 5663 5658 5653 5648 5643 5638 5632 5626 5621 5616 5611 5606 5602 5597 5593 5589 5584 5580 5577 5573 5570 5566 5563 5561 5558 5556
5720 5718 5716 5713 5711 5708 5705 5702 5699 5695 5692 5688 5684 5679 5675 5670 5665 5660 5655 5650 5645 5639 5634 5629 5623 5618 5612 5607 5602 5598 5593 5589 5584 5580 5576 5572 5568 5565 5561 5558 5555 5553 5550
5718 5716 5714 5712 5709 5706 5703 5700 5697 5693 5689 5685 5681 5676 5672 5667 5662 5657 5652 5646 5641 5636 5631 5625 5619 5614 5608 5603 5598 5594 5589 5584 5580 5576 5572 5568 5564 5560 5556 5553 5550 5547 5544
5716 5714 5712 5710 5707 5704 5701 5698 5695 5691 5687 5683 5678 5674 5669 5664 5659 5654 5649 5643 5638 5632 5627 5622 5616 5610 5605 5599 5594 5589 5585 5580 5576 5572 5568 5564 5560 5556 5552 5548 5545 5542 5539
5714 5712 5710 5708 5705 5702 5699 5696 5692 5689 5685 5680 5676 5671 5666 5661 5656 5651 5645 5640 5634 5629 5624 5618 5613 5607 5601 5596 5591 5586 5581 5577 5573 5569 5564 5560 5556 5552 5548 5544 5541 5538 5535
5711 5709 5707 5705 5703 5700 5697 5693 5690 5686 5682 5678 5673 5668 5663 5658 5653 5648 5642 5637 5632 5626 5621 5616 5610 5604 5599 5593 5588 5583 5579 5574 5570 5566 5561 5557 5553 5549 5545 5541 5537 5534 5531